Location: *
(41.7492°S, 135.4150°W)
Time: 21:56:58
(UTC+00:00)

METEOR M2 - Pass Details

Date: 09 July 2022
Orbit: 818 x 827 km, 98.4° (Epoch: 17 August)

Event Time Altitude Azimuth Distance (km) Brightness Sun altitude
Rises 14:47:48 0° 23° (NNE) 3,345 ? -18.1°
Reaches altitude 10° 14:50:09 10° 26° (NNE) 2,420 ? -17.7°
Maximum altitude 14:55:27 67° 107° (ESE) 900 ? -16.7°
Drops below altitude 10° 15:00:50 10° 188° (S) 2,448 ? -15.7°
Sets 15:03:13 0° 190° (S) 3,387 ? -15.3°
